[[{"header":{"parameterUnit":"m.s-1","parameterCategory":1,"la1":30.2991,"la2":30.254,"lo1":-89.0895,"lo2":-89.0444,"dy":0.0017,"dx":0.0017,"nx":28,"ny":28,"refTime":"2023-08-10T21:00:00:Z","depth":0,"parameterNumber":2,"parameterNumberName":"U-component_of_WINDS"},"data":[0,0,0,0,0,0,0,0,0,0,0,0,0,0,0,0,0,0,0,0,0,0,0,0,0,0,0,0,0,0,0,0,0,0,0,0,0,0,0,0,0,0,0,0,0,0,0,0,0,0,0,0,0,0,0,0,0,0,2.2071,2.2072,0,2.219,2.2191,2.2192,2.2206,2.2204,2.2203,2.2202,2.2329,2.2333,2.2338,0,0,0,0,0,0,0,0,0,0,0,0,0,2.1862,2.1866,2.2071,2.2073,2.2074,2.2189,2.2191,2.2193,2.2206,2.2204,2.2203,2.2201,2.2327,2.2333,2.2338,0,0,0,0,0,0,0,0,0,0,0,0,0,2.1964,2.1867,2.2071,2.2094,2.2098,2.2189,2.2191,2.2193,2.2206,2.2204,2.2202,2.2201,2.2326,2.2332,2.2339,2.2417,0,0,2.236,2.2362,0,0,0,0,0,0,0,0,2.1958,2.1972,2.2089,2.2093,2.2097,2.2181,2.2164,2.2268,2.2207,2.2165,2.2202,2.22,2.2282,2.2292,2.2318,2.2423,2.2428,2.236,2.2364,2.2367,2.2369,0,0,0,0,0,0,0,2.1951,2.1967,2.2118,2.2091,2.2096,2.2101,2.2113,2.2184,2.2232,2.2169,2.217,2.2183,2.2283,2.2312,2.2321,2.243,2.236,2.2366,2.237,2.2373,2.2606,2.2608,0,0,0,0,0,0,2.1939,2.1961,2.2114,2.2122,2.2021,2.2106,2.212,2.2156,2.2231,2.2241,2.2185,2.2184,2.2301,2.2313,2.2326,2.2423,2.2367,2.2373,2.2377,2.2604,2.2606,2.2609,0,0,0,0,0,0,2.1934,2.1952,2.211,2.2042,2.2062,2.2112,2.2152,2.2159,2.2187,2.2244,2.2253,2.2204,2.23,2.2316,2.2394,2.2427,2.2376,2.2383,2.2601,2.2605,2.2608,2.2616,0,0,0,0,0,0,2.1928,2.1951,2.1979,2.2042,2.2065,2.2174,2.2154,2.2163,2.2198,2.2198,2.2264,2.2274,2.23,2.2384,2.2401,2.2436,2.2388,2.2599,2.2603,2.2607,2.2613,2.2619,2.2625,0,0,0,0,0,2.1921,2.1978,2.1981,2.1999,2.2102,2.2176,2.2189,2.2217,2.2201,2.2231,2.2267,2.2272,2.2421,2.2392,2.2411,2.2448,2.2597,2.2602,2.2606,2.2611,2.2618,2.2624,0,0,0,0,0,0,2.1919,2.1987,2.199,2.2069,2.2116,2.2178,2.2217,2.2223,2.2278,2.2275,2.2308,2.2323,2.24,2.2432,2.2398,2.2528,2.2507,2.2516,2.2504,2.2512,2.2517,2.2508,2.2393,0,0,0,0,0,2.1928,2.198,2.2037,2.2101,2.2125,2.2167,2.22,2.2216,2.2268,2.2288,2.233,2.2381,2.244,2.2478,2.2534,2.2618,2.2634,2.2653,2.2659,2.2663,2.2671,2.2719,2.2728,2.2625,2.2625,2.2625,0,0,2.1947,2.199,2.2021,2.2102,2.2141,2.2196,2.2183,2.2243,2.2285,2.2298,2.2373,2.2406,2.2466,2.2547,2.2585,2.2576,2.2703,2.267,2.2673,2.2678,2.2725,2.2734,2.2743,2.2628,2.2627,2.2627,0,0,2.2009,2.2047,2.2105,2.2144,2.2202,2.2229,2.2243,2.2304,2.2326,2.2402,2.2413,2.2465,2.2564,2.2606,2.2641,2.272,2.2727,2.2738,2.2768,2.2814,2.2822,2.283,2.2859,2.2869,2.2745,2.2745,2.2745,0,2.2026,2.2108,2.2134,2.2193,2.2229,2.2242,2.2302,2.2339,2.2414,2.2439,2.2428,2.2553,2.2594,2.2686,2.2705,2.2732,2.2751,2.2731,2.2819,2.2827,2.2834,2.2862,2.2873,2.2746,2.2746,2.2746,2.2746,0,2.2126,2.2183,2.2223,2.2293,2.2334,2.2393,2.243,2.2468,2.2482,2.2511,2.2589,2.2639,2.2706,2.2729,2.2744,2.2824,2.2816,2.2812,2.2791,2.2844,2.2871,2.2882,2.2748,2.2747,2.2747,2.2747,0,0,2.2191,2.2274,2.2289,2.2321,2.2387,2.2433,2.2493,2.2558,2.259,2.2642,2.2694,2.2779,2.2775,2.2814,2.2833,2.2874,2.2935,2.2864,2.2866,2.2876,2.3027,2.303,2.3042,2.2939,2.2941,2.2943,2.3022,0,2.2261,2.2367,2.2393,2.2485,2.2539,2.2553,2.2606,2.2653,2.2683,2.2734,2.2768,2.2827,2.2817,2.284,2.2881,2.2918,2.2966,2.2913,2.299,2.2993,2.2975,2.3056,2.306,2.3132,2.3033,2.3035,2.3036,0,2.2357,2.2409,2.2506,2.2565,2.2589,2.2636,2.2698,2.2746,2.2801,2.282,2.2863,2.2879,2.2945,2.2921,2.3013,2.2977,2.301,2.3033,2.3037,2.3045,2.3017,2.3067,2.3155,2.3166,2.3053,2.3052,2.305,0,2.2396,2.249,2.256,2.2588,2.2659,2.2691,2.2723,2.2775,2.2813,2.2867,2.2892,2.2954,2.2988,2.3037,2.307,2.3049,2.3159,2.3138,2.3178,2.3177,2.3201,2.3199,2.3296,2.3222,2.3222,2.3221,2.3221,0,2.2472,2.2531,2.2578,2.2622,2.2689,2.2719,2.2785,2.2817,2.2864,2.2915,2.2931,2.2979,2.3019,2.3073,2.31,2.3172,2.3188,2.3206,2.3212,2.3204,2.3202,2.3227,2.3223,2.3224,2.3224,2.3223,2.3223,0,2.2525,2.256,2.2637,2.2698,2.2715,2.2762,2.2814,2.2858,2.2888,2.2952,2.297,2.3017,2.3082,2.3119,2.3201,2.3218,2.3299,2.3303,2.328,2.3283,2.3321,2.3317,2.3437,2.3455,2.3369,2.337,2.337,0,2.2572,2.2617,2.2683,2.2717,2.2749,2.2805,2.2842,2.2875,2.2914,2.298,2.3016,2.3081,2.3134,2.3237,2.3281,2.3344,2.3349,2.3387,2.3359,2.335,2.335,2.3347,2.3352,2.3392,2.3393,2.3393,2.3394,0,2.2651,2.2665,2.2719,2.2778,2.2823,2.2872,2.292,2.2948,2.2989,2.3032,2.3097,2.3139,2.3222,2.3287,2.3354,2.3388,2.3399,2.3402,2.3415,2.3408,2.3392,2.3401,2.3294,2.34,2.3399,2.3399,2.3398,2.3398,2.2703,2.2744,2.2796,2.2855,2.2895,2.294,2.2984,2.3019,2.3074,2.3143,2.3159,2.3228,2.3283,2.3373,2.3409,2.3465,2.3459,2.3477,2.3482,2.3485,2.3487,2.3383,2.3477,2.3477,2.3477,2.3477,2.3477,0,2.2782,2.2817,2.2871,2.2938,2.2985,2.2989,2.3043,2.3083,2.3143,2.3192,2.3244,2.332,2.3383,2.3431,2.3497,2.3532,2.3539,2.3548,2.3546,2.3554,2.3489,2.3471,2.3542,2.3542,2.3542,2.3542,2.3542,2.3542,2.2829,2.29,2.2921,2.3012,2.3047,2.3113,2.3144,2.3186,2.3226,2.3309,2.3361,2.3391,2.3441,2.351,2.3569,2.3582,2.3605,2.3614,2.3628,2.3566,2.3559,2.3552,2.3536,2.3619,2.3619,2.3688,2.3689,2.3689]},{"header":{"parameterUnit":"m.s-1","parameterCategory":1,"la1":30.2991,"la2":30.254,"lo1":-89.0895,"lo2":-89.0444,"dy":0.0017,"dx":0.0017,"nx":28,"ny":28,"refTime":"2023-08-10T21:00:00:Z","depth":0,"parameterNumber":3,"parameterNumberName":"V-component_of_WINDS"},"data":[0,0,0,0,0,0,0,0,0,0,0,0,0,0,0,0,0,0,0,0,0,0,0,0,0,0,0,0,0,0,0,0,0,0,0,0,0,0,0,0,0,0,0,0,0,0,0,0,0,0,0,0,0,0,0,0,0,0,3.6385,3.6386,0,3.6482,3.6483,3.6484,3.649,3.6489,3.6488,3.6487,3.6582,3.6585,3.6589,0,0,0,0,0,0,0,0,0,0,0,0,0,3.6197,3.6201,3.6385,3.6386,3.6387,3.6482,3.6483,3.6484,3.649,3.6489,3.6487,3.6486,3.6581,3.6585,3.6589,0,0,0,0,0,0,0,0,0,0,0,0,0,3.6285,3.6202,3.6385,3.6402,3.6404,3.6481,3.6483,3.6485,3.649,3.6489,3.6487,3.6485,3.6579,3.6584,3.659,3.6655,0,0,3.6606,3.6608,0,0,0,0,0,0,0,0,3.628,3.6292,3.6398,3.6401,3.6403,3.6472,3.6452,3.6542,3.6491,3.6457,3.6487,3.6485,3.6546,3.6554,3.6576,3.666,3.6664,3.6606,3.661,3.6612,3.6613,0,0,0,0,0,0,0,3.6274,3.6287,3.6423,3.6399,3.6403,3.6402,3.6412,3.6469,3.651,3.646,3.6461,3.6472,3.6547,3.6571,3.6578,3.6665,3.6606,3.6611,3.6614,3.6616,3.6801,3.6803,0,0,0,0,0,0,3.6265,3.6282,3.642,3.6426,3.6336,3.6407,3.6418,3.6452,3.6509,3.6516,3.6474,3.6472,3.6562,3.6572,3.6581,3.6658,3.6612,3.6617,3.662,3.68,3.6802,3.6803,0,0,0,0,0,0,3.6261,3.6277,3.6416,3.6354,3.6372,3.6412,3.6449,3.6454,3.6478,3.6519,3.6526,3.649,3.6561,3.6574,3.6636,3.6662,3.6619,3.6624,3.6797,3.68,3.6803,3.6814,0,0,0,0,0,0,3.6256,3.6276,3.6304,3.6355,3.6375,3.6471,3.6451,3.6457,3.6487,3.6486,3.6537,3.6544,3.6561,3.6628,3.6641,3.6668,3.6628,3.6795,3.6799,3.6802,3.6812,3.6817,3.6822,0,0,0,0,0,3.6249,3.6303,3.6305,3.6322,3.6411,3.6473,3.6484,3.6504,3.649,3.6516,3.6542,3.6542,3.6657,3.6634,3.6649,3.6678,3.6794,3.6798,3.6801,3.681,3.6816,3.6821,0,0,0,0,0,0,3.6254,3.6311,3.6313,3.6386,3.6424,3.6474,3.6508,3.6511,3.6554,3.6551,3.6573,3.6584,3.6644,3.6668,3.6641,3.6742,3.6723,3.673,3.6724,3.6731,3.6735,3.6728,3.6633,0,0,0,0,0,3.6263,3.6311,3.6357,3.6417,3.6436,3.6468,3.6496,3.6508,3.6548,3.6564,3.6595,3.6633,3.6676,3.6705,3.6748,3.6815,3.6824,3.6842,3.6847,3.6851,3.6856,3.6888,3.6895,3.6816,3.6816,3.6816,0,0,3.6284,3.6321,3.6349,3.6419,3.645,3.6495,3.6482,3.6533,3.6565,3.6572,3.6631,3.6655,3.6697,3.6761,3.679,3.6782,3.688,3.6856,3.6858,3.6862,3.6893,3.69,3.6907,3.6819,3.6818,3.6818,0,0,3.6343,3.6378,3.6429,3.646,3.6507,3.6527,3.6539,3.6587,3.6603,3.6663,3.6667,3.6706,3.6783,3.6811,3.6836,3.6901,3.6901,3.6914,3.6939,3.697,3.6976,3.6982,3.7001,3.7008,3.692,3.692,3.692,0,3.6362,3.6433,3.6455,3.6504,3.6532,3.6539,3.6589,3.6618,3.6676,3.6694,3.6684,3.6777,3.6807,3.6875,3.689,3.6911,3.6922,3.6908,3.6974,3.698,3.6985,3.7004,3.7011,3.6921,3.6921,3.6921,3.692,0,3.6452,3.65,3.6536,3.6591,3.6624,3.6673,3.6698,3.6728,3.6736,3.6756,3.6814,3.685,3.6898,3.6915,3.6924,3.6983,3.6976,3.697,3.6951,3.6993,3.7011,3.7019,3.6922,3.6922,3.6922,3.6921,0,0,3.6519,3.6583,3.6595,3.6618,3.6669,3.6705,3.6753,3.68,3.6823,3.6862,3.69,3.6962,3.6955,3.6983,3.6995,3.7022,3.7066,3.7013,3.7014,3.7018,3.7128,3.713,3.7139,3.7067,3.7068,3.707,3.7123,0,3.6581,3.6668,3.6686,3.6759,3.6801,3.6806,3.6847,3.688,3.6899,3.6936,3.6957,3.6999,3.6989,3.7005,3.7033,3.7055,3.7088,3.7052,3.7099,3.71,3.7086,3.7149,3.7152,3.7201,3.7131,3.7132,3.7133,0,3.6667,3.6706,3.6784,3.6824,3.6842,3.6879,3.6921,3.6957,3.6993,3.7005,3.7034,3.7041,3.7086,3.7066,3.7127,3.7102,3.7122,3.7135,3.7137,3.7141,3.7118,3.7151,3.7218,3.7224,3.7145,3.7144,3.7143,0,3.6703,3.6776,3.683,3.685,3.69,3.6924,3.6946,3.6981,3.7006,3.7043,3.7058,3.71,3.7121,3.7151,3.7168,3.7153,3.7226,3.7208,3.7234,3.7233,3.7248,3.7247,3.7316,3.7265,3.7265,3.7265,3.7264,0,3.677,3.6816,3.6847,3.688,3.693,3.6949,3.6997,3.7018,3.7048,3.7083,3.709,3.7122,3.7143,3.7177,3.7191,3.7236,3.7247,3.7255,3.7257,3.7253,3.7252,3.7265,3.7261,3.7266,3.7266,3.7266,3.7265,0,3.6819,3.6842,3.6901,3.6942,3.6953,3.6987,3.7021,3.7052,3.707,3.7113,3.7124,3.7152,3.7192,3.7212,3.7262,3.7271,3.7321,3.7323,3.7309,3.7309,3.7333,3.7329,3.7412,3.7422,3.7366,3.7367,3.7367,0,3.6859,3.6894,3.6938,3.6962,3.6983,3.7023,3.7048,3.7067,3.7093,3.7134,3.7158,3.7199,3.7232,3.7295,3.7318,3.7355,3.7356,3.7382,3.7362,3.7354,3.7352,3.7349,3.7351,3.7385,3.7386,3.7386,3.7387,0,3.6925,3.6934,3.6972,3.7012,3.7042,3.7075,3.7107,3.7126,3.7149,3.7177,3.7218,3.7243,3.7293,3.7331,3.7369,3.7389,3.739,3.7393,3.74,3.7395,3.7385,3.7387,3.7316,3.7391,3.7391,3.739,3.739,3.739,3.6969,3.6999,3.7033,3.7073,3.7099,3.7127,3.7157,3.7178,3.7213,3.7255,3.7263,3.7306,3.7336,3.7387,3.7407,3.7439,3.7433,3.7444,3.7447,3.7448,3.7448,3.7381,3.7446,3.7446,3.7446,3.7446,3.7446,0,3.7033,3.7055,3.7092,3.7135,3.7166,3.7166,3.72,3.7224,3.7262,3.7291,3.7323,3.7367,3.7404,3.7429,3.7465,3.7485,3.7486,3.7493,3.7491,3.7494,3.7453,3.7442,3.7491,3.7491,3.7491,3.7491,3.7491,3.7491,3.707,3.7119,3.7131,3.7191,3.7212,3.7254,3.7273,3.7298,3.7321,3.737,3.7401,3.7417,3.7443,3.748,3.7512,3.7518,3.753,3.7537,3.7542,3.7503,3.7498,3.7493,3.7483,3.754,3.754,3.7581,3.7581,3.7582]}]]